Weather History for Jaipur, India

Change the Weather History Date:

Saturday, November 24, 2012

  Actual Average Record
Temperature  
Mean Temperature 70 °F -  
Max Temperature 86 °F - - ()
Min Temperature 53 °F - - ()
Cooling Degree Days 4    
Growing Degree Days 20 (Base 50)    
Moisture  
Dew Point 40 °F    
Average Humidity 37    
Maximum Humidity 63    
Minimum Humidity 9    
Precipitation  
Precipitation 0.00 in - - ()
Sea Level Pressure  
Sea Level Pressure 29.96 in    
Wind  
Wind Speed 3 mph ()    
Max Wind Speed 14 mph    
Max Gust Speed -    
Visibility 1.7 miles    
Events      
T = Trace of Precipitation, MM = Missing Value Source: Averaged Metar Reports

Daily Weather History Graph

Daily Weather History Graph

Search for Another Location

Airport:

Trip Planner

Search our weather history database for the weather conditions in past years. The results will help you decide how hot, cold, wet, or windy it might be!

Date:

Astronomy

Nov. 24, 2012 Rise Set
Actual Time 6:53 AM IST 5:33 PM IST
Civil Twilight 6:28 AM IST 5:58 PM IST
Nautical Twilight 5:59 AM IST 6:26 PM IST
Astronomical Twilight 5:31 AM IST 6:54 PM IST
Moon 2:48 PM IST (11/24) 3:01 AM IST (11/24)
Length of Visible Light 11h 30m
Length of Day
10h 40m
Waxing Gibbous, 84% of the Moon is Illuminated
Nov 24
Waxing Gibbous
Nov 28
Full
Dec 6
Last Quarter
Dec 13
New
Dec 20
First Quarter

Hourly Weather History & Observations

Time (IST) Temp. Dew Point Humidity Pressure Visibility Wind Dir Wind Speed Gust Speed Precip Events Conditions
1:00 AM 59.0 °F 46.4 °F 63% 29.98 in 1.2 mi Calm Calm - N/A   Smoke
2:00 AM 59.0 °F 42.8 °F 55% 29.95 in 1.2 mi Calm Calm - N/A   Smoke
2:30 AM 59 °F 46 °F 51% 29.93 in 1 mi Calm Calm - -   Smoke
3:00 AM 59.0 °F 41.0 °F 51% 29.95 in 1.2 mi Calm Calm - N/A   Smoke
4:00 AM 59.0 °F 41.0 °F 51% 29.95 in 1.2 mi Calm Calm - N/A   Smoke
6:00 AM 55.4 °F 41.0 °F 58% 29.95 in 1.2 mi Calm Calm - N/A   Smoke
7:00 AM 55.4 °F 42.8 °F 63% 29.98 in 1.2 mi Calm Calm - N/A   Smoke
8:00 AM 62.6 °F 46.4 °F 55% 30.01 in 1.2 mi Calm Calm - N/A   Smoke
8:30 AM 64 °F 48 °F 45% 29.96 in 1 mi NNE 4.6 mph - -   Smoke
10:00 AM 71.6 °F 46.4 °F 41% 30.04 in 1.9 mi SE 4.6 mph - N/A   Haze
11:00 AM 73.4 °F 46.4 °F 38% 30.01 in 1.9 mi SSE 3.5 mph - N/A   Haze
11:30 AM 77 °F 46 °F 22% 29.94 in 1 mi Calm Calm - -   Haze
12:00 PM 77.0 °F 42.8 °F 29% 29.98 in 1.9 mi SSW 8.1 mph - N/A   Haze
1:00 PM 78.8 °F 41.0 °F 26% 29.95 in 2.2 mi WSW 6.9 mph - N/A   Haze
2:00 PM 80.6 °F 33.8 °F 18% 29.92 in 2.2 mi West 11.5 mph - N/A   Haze
2:30 PM 84 °F 34 °F 9% 29.85 in 1 mi WNW 11.5 mph - -   Haze
3:00 PM 80.6 °F 35.6 °F 20% 29.92 in 2.5 mi West 13.8 mph - N/A   Haze
4:00 PM 80.6 °F 33.8 °F 18% 29.92 in 2.5 mi West 13.8 mph - N/A   Haze
4:30 PM 78.8 °F 35.6 °F 21% 29.92 in 2.5 mi WNW 11.5 mph - N/A   Haze
5:00 PM 78.8 °F 35.6 °F 21% 29.92 in 2.5 mi NW 6.9 mph - N/A   Haze
5:30 PM 77 °F 38 °F 15% 29.86 in 2 mi WNW 5.8 mph - -   Haze
6:30 PM 69.8 °F 35.6 °F 28% 29.95 in 1.9 mi WNW 4.6 mph - N/A   Haze
7:00 PM 71.6 °F 35.6 °F 27% 29.95 in 1.9 mi WNW 5.8 mph - N/A   Haze
8:00 PM 69.8 °F 35.6 °F 28% 29.98 in 1.9 mi Calm Calm - N/A   Haze
8:30 PM 68.0 °F 37.4 °F 33% 29.98 in 1.9 mi Calm Calm - N/A   Haze
9:00 PM 68.0 °F 39.2 °F 35% 30.01 in 1.9 mi Calm Calm - N/A   Haze
10:00 PM 60.8 °F 41.0 °F 48% 30.01 in 1.6 mi Calm Calm - N/A   Haze
11:00 PM 62.6 °F 41.0 °F 45% 30.01 in 1.6 mi Calm Calm - N/A   Haze
11:30 PM 60.8 °F 42.8 °F 52% 30.01 in 1.2 mi Calm Calm - N/A   Smoke